Regional Weather Roundup
Issued by NWS

Home | Current Version | Previous Version | Text Only | Print | Product List | Glossary Off
Versions: 1 2 3 4 5 6 7 8 9 10 11 12 13 14 15 16 17 18 19 20 21 22 23 24 25 26 27 28 29 30 31 32 33 34 35 36 37 38 39 40 41 42 43 44 45 46 47 48 49 50

259
ASUS45 KPSR 271210
RWRAZ

ARIZONA HOURLY REGIONAL WEATHER ROUNDUP
NATIONAL WEATHER SERVICE PHOENIX AZ
500 AM MST MON FEB 27 2017

NOTE: FAIR INDICATES FEW OR NO CLOUDS BELOW 12,000 FEET WITH NO
SIGNIFICANT WEATHER AND/OR OBSTRUCTIONS TO VISIBILITY.

AZZ001>003-036-271300-
NORTHWEST ARIZONA

CITY           SKY/WX    TMP DP  RH WIND       PRES   REMARKS
BULLHEAD CITY  PTCLDY    50  37  62 CALM      29.85R
KINGMAN        PTCLDY    40  24  53 E6        29.83S
6HR MIN TEMP:  39; 6HR MAX TEMP:  47;

$$

AZZ004>008-015-016-018-271300-
NORTH CENTRAL ARIZONA

CITY           SKY/WX    TMP DP  RH WIND       PRES   REMARKS
GRAND CANYON   CLOUDY    32  26  78 SW22G31   29.82R WCI  19
6HR MIN TEMP:  31; 6HR MAX TEMP:  32; 6HR PCP: TRACE;

WILLIAMS       CLOUDY    32  25  74 S26G39    29.82F WCI  18
PRESCOTT       MOCLDY    39  30  70 S9G24     29.91S WCI  33
6HR MIN TEMP:  39; 6HR MAX TEMP:  41;

FLAGSTAFF      CLOUDY    29  25  85 SW17G25   29.86S WCI  17
6HR MIN TEMP:  29; 6HR MAX TEMP:  31; 6HR PCP: TRACE;

PAYSON         CLOUDY    39  28  65 VRB5      29.97F
PAGE           MOCLDY    40  20  44 S9        29.75F WCI  34
6HR MIN TEMP:  40; 6HR MAX TEMP:  46;

$$

AZZ009>014-017-271300-
NORTHEAST ARIZONA

CITY           SKY/WX    TMP DP  RH WIND       PRES   REMARKS
WINSLOW        MOCLDY    40  27  59 S14       29.88R WCI  32
6HR MIN TEMP:  27; 6HR MAX TEMP:  40;

SAINT JOHNS    PTCLDY    25  19  78 VRB3      29.87S
6HR MIN TEMP:  24; 6HR MAX TEMP:  32;

WINDOW ROCK    CLOUDY    34  22  61 SW12G24   29.87R WCI  25
6HR MIN TEMP:  31; 6HR MAX TEMP:  35;

SHOW LOW       CLOUDY    32  21  64 S20G29    29.91R WCI  20
$$

AZZ023-271300-
GREATER PHOENIX AREA

CITY           SKY/WX    TMP DP  RH WIND       PRES   REMARKS
PHOENIX        PTCLDY    51  37  58 SE8       29.93S
6HR MIN TEMP:  49; 6HR MAX TEMP:  57;

BUCKEYE          N/A     46  41  81 E5        29.94R
LUKE AFB       CLEAR     51  38  62 SW3       29.93R
6HR MIN TEMP:  50; 6HR MAX TEMP:  55;

DEER VALLEY    PTCLDY    49  37  63 E8        29.93S
6HR MIN TEMP:  49; 6HR MAX TEMP:  56;

SCOTTSDALE     CLEAR     48  36  63 CALM      29.95S
6HR MIN TEMP:  48; 6HR MAX TEMP:  53;

MESA-GATEWAY   MOCLDY    45  36  70 SE9       29.96S
$$

AZZ027-028-271300-
SOUTHWEST MARICOPA COUNTY AND PINAL COUNTY

CITY           SKY/WX    TMP DP  RH WIND       PRES   REMARKS
CASA GRANDE    NOT AVBL
$$

AZZ503-504-507>509-271300-
SOUTHEAST ARIZONA

CITY           SKY/WX    TMP DP  RH WIND       PRES   REMARKS
TUCSON         CLEAR     45  33  63 S3        30.00R
6HR MIN TEMP:  44; 6HR MAX TEMP:  54;

DAVIS-MONTHAN  CLEAR     42  32  67 CALM      29.99R
6HR MIN TEMP:  41; 6HR MAX TEMP:  47;

NOGALES        CLEAR     37  27  67 S6        30.01R WCI  32
6HR MIN TEMP:  36; 6HR MAX TEMP:  46;

SIERRA VISTA   PTCLDY    38  23  54 CALM      30.01R
6HR MIN TEMP:  38; 6HR MAX TEMP:  49;

DOUGLAS        CLEAR     42  28  57 W3        30.02R
6HR MIN TEMP:  41; 6HR MAX TEMP:  51;

SAFFORD        CLEAR     33  25  72 SE3       29.97R
6HR MIN TEMP:  32; 6HR MAX TEMP:  41;

$$

AZZ020-021-025-026-031-271300-
SOUTHWEST ARIZONA

CITY           SKY/WX    TMP DP  RH WIND       PRES   REMARKS
YUMA           CLOUDY    56  45  66 SE9       29.88F
6HR MIN TEMP:  51; 6HR MAX TEMP:  56;

$$

CAZ031-033-041-043-047-048-061-271300-
SOUTHERN CALIFORNIA

CITY           SKY/WX    TMP DP  RH WIND       PRES   REMARKS
DOWNTOWN L.A.  CLOUDY    53  42  66 CALM      29.90F
6HR MIN TEMP:  52; 6HR MAX TEMP:  53;

L.A. AIRPORT   CLOUDY    50  44  80 E7        29.90F
6HR MIN TEMP:  48; 6HR MAX TEMP:  53;

SAN DIEGO      RAIN      55  52  89 SE8       29.90F FOG
6HR MIN TEMP:  54; 6HR MAX TEMP:  57; 6HR PCP:  0.26;

BURBANK        CLOUDY    50  39  66 SE5       29.89F
6HR MIN TEMP:  50; 6HR MAX TEMP:  51;

ONTARIO        CLOUDY    47  42  83 NE3       29.91F
6HR MIN TEMP:  44; 6HR MAX TEMP:  48;

RIVERSIDE      CLOUDY    47  45  93 CALM      29.91F
6HR MIN TEMP:  45; 6HR MAX TEMP:  49;

PALM SPRINGS   CLOUDY    53  40  61 SE6       29.84R
6HR MIN TEMP:  49; 6HR MAX TEMP:  56;

EL CENTRO NAS  CLOUDY    53  40  61 SE10      29.87F
6HR MIN TEMP:  50; 6HR MAX TEMP:  58;

IMPERIAL       CLOUDY    54  39  57 SE12      29.86S
6HR MIN TEMP:  51; 6HR MAX TEMP:  57;

BLYTHE         PTCLDY    51  40  65 SE7       29.87S
6HR MIN TEMP:  50; 6HR MAX TEMP:  57;

NEEDLES        MOCLDY    52  37  56 CALM      29.84S
6HR MIN TEMP:  52; 6HR MAX TEMP:  59;

$$

NVZ020-UTZ003-271300-
SOUTHERN NEVADA-UTAH

CITY           SKY/WX    TMP DP  RH WIND       PRES   REMARKS
LAS VEGAS      MOCLDY    48  30  49 S15G25    29.72S
6HR MIN TEMP:  48; 6HR MAX TEMP:  52;

SALT LAKE CITY FLURRIES  33  30  88 N17       29.63S WCI  22
6HR MIN TEMP:  33; 6HR MAX TEMP:  40; 6HR PCP: TRACE;

$$

NMZ009-TXZ055-271300-
NEW MEXICO-WEST TEXAS

CITY           SKY/WX    TMP DP  RH WIND       PRES   REMARKS
ALBUQUERQUE    CLOUDY    33  23  66 CALM      29.92S
6HR MIN TEMP:  30; 6HR MAX TEMP:  38;

EL PASO        CLEAR     41  17  38 SE7       29.95R
6HR MIN TEMP:  41; 6HR MAX TEMP:  54;

$$


........................KEY........................
SKY/WX - SKY CONDITION/WEATHER
TMP    - TEMPERATURE IN FAHRENHEIT
DP     - DEW POINT IN FAHRENHEIT
RH     - RELATIVE HUMIDITY IN PERCENT
WIND   - DIRECTION AND SPEED IN MILES PER HOUR (MPH)
VRB    - VARIABLE WIND DIRECTION
PRES   - MEAN SEA LEVEL PRESSURE IN INCHES OF MERCURY
         F - FALLING PRESSURE   R - RISING PRESSURE
         S - STEADY PRESSURE
VSB    - VISIBILITY IN MILES
HX     - HEAT INDEX IN FAHRENHEIT
WCI    - WIND CHILL INDEX IN FAHRENHEIT
TC     - TEMPERATURE IN CELSIUS WHICH IS ALSO KNOWN AS
         TEMPERATURE IN CENTIGRADE
AFB    - AIR FORCE BASE
         LUKE AFB IS LUKE AIR FORCE BASE
         DAVIS-MONTHAN IS DAVIS-MONTHAN AIR FORCE BASE
NAS    - NAVAL AIR STATION
         EL CENTRO NAS IS EL CENTRO NAVAL AIR STATION
N/A    - NOT AVAILABLE





USA.gov is the U.S. government's official web portal to all federal, state and local government web resources and services.